Regional Weather Roundup
Issued by NWS

Home | Current Version | Previous Version | Text Only | Print | Product List | Glossary Off
Versions: 1 2 3 4 5 6 7 8 9 10 11 12 13 14 15 16 17 18 19 20 21 22 23 24 25 26 27 28 29 30 31 32 33 34 35 36 37 38 39 40 41 42 43 44 45 46 47 48 49 50

693
ASUS45 KPSR 190610
RWRAZ

ARIZONA HOURLY REGIONAL WEATHER ROUNDUP
NATIONAL WEATHER SERVICE PHOENIX AZ
1100 PM MST THU JAN 18 2018

NOTE: FAIR INDICATES FEW OR NO CLOUDS BELOW 12,000 FEET WITH NO
SIGNIFICANT WEATHER AND/OR OBSTRUCTIONS TO VISIBILITY.

AZZ001>003-036-190700-
NORTHWEST ARIZONA

CITY           SKY/WX    TMP DP  RH WIND       PRES   REMARKS
BULLHEAD CITY  CLEAR     61  32  33 CALM      30.03S
KINGMAN        CLEAR     44  30  57 SE9       30.11S
6HR MIN TEMP:  44; 6HR MAX TEMP:  65;

$$

AZZ004>008-015-016-018-190700-
NORTH CENTRAL ARIZONA

CITY           SKY/WX    TMP DP  RH WIND       PRES   REMARKS
GRAND CANYON   PTCLDY    26  17  68 CALM      30.20F
6HR MIN TEMP:  25; 6HR MAX TEMP:  52;

WILLIAMS       PTCLDY    30  18  59 S12       30.19F WCI  21
PRESCOTT       MOCLDY    39  25  57 S5        30.18S
6HR MIN TEMP:  39; 6HR MAX TEMP:  60;

FLAGSTAFF      MOCLDY    27  16  63 CALM      30.23S
6HR MIN TEMP:  27; 6HR MAX TEMP:  50;

PAYSON         MOCLDY    39  18  41 CALM      30.20R
PAGE           CLOUDY    41  24  51 NW3       30.13F
6HR MIN TEMP:  41; 6HR MAX TEMP:  49;

$$

AZZ009>014-017-190700-
NORTHEAST ARIZONA

CITY           SKY/WX    TMP DP  RH WIND       PRES   REMARKS
WINSLOW        MOCLDY    32  12  43 SE5       30.19R WCI  27
6HR MIN TEMP:  29; 6HR MAX TEMP:  54;

SAINT JOHNS    MOCLDY    28  17  63 CALM      30.21R
6HR MIN TEMP:  28; 6HR MAX TEMP:  51;

WINDOW ROCK    MOCLDY    24  15  68 CALM      30.23S
6HR MIN TEMP:  24; 6HR MAX TEMP:  52;

SHOW LOW       MOCLDY    37  21  52 S7        30.23F WCI  32
$$

AZZ540-542>544-546-548-190700-
GREATER PHOENIX AREA

CITY           SKY/WX    TMP DP  RH WIND       PRES   REMARKS
PHOENIX        MOCLDY    57  34  41 CALM      30.05R
6HR MIN TEMP:  57; 6HR MAX TEMP:  73;

BUCKEYE        MOCLDY    50  28  43 N3        30.06S
LUKE AFB       MOCLDY    52  38  58 N5        30.04S
6HR MIN TEMP:  51; 6HR MAX TEMP:  72;

DEER VALLEY    MOCLDY    58  29  33 NE14      30.06S
6HR MIN TEMP:  57; 6HR MAX TEMP:  71;

SCOTTSDALE     MOCLDY    54  35  48 CALM      30.07S
6HR MIN TEMP:  54; 6HR MAX TEMP:  72;

MESA-GATEWAY   PTCLDY    52  28  40 VRB7      30.07S
$$

AZZ539-553-190700-
SOUTHWEST MARICOPA COUNTY AND PINAL COUNTY

CITY           SKY/WX    TMP DP  RH WIND       PRES   REMARKS
CASA GRANDE    NOT AVBL
GILA BEND      FAIR      53  27  35 S7        30.03S
6HR MIN TEMP:  53; 6HR MAX TEMP:  74;

$$

AZZ503-504-507>509-190700-
SOUTHEAST ARIZONA

CITY           SKY/WX    TMP DP  RH WIND       PRES   REMARKS
TUCSON         PTCLDY    52  19  27 SE8       30.11S
6HR MIN TEMP:  52; 6HR MAX TEMP:  73;

DAVIS-MONTHAN  MOCLDY    55  19  25 SE12      30.09S
6HR MIN TEMP:  51; 6HR MAX TEMP:  72;

NOGALES        CLEAR     43  18  36 CALM      30.15R
6HR MIN TEMP:  43; 6HR MAX TEMP:  70;

SIERRA VISTA   CLEAR     48  18  29 S10       30.18S
6HR MIN TEMP:  44; 6HR MAX TEMP:  63;

DOUGLAS        CLEAR     37  17  44 CALM      30.17F
6HR MIN TEMP:  32; 6HR MAX TEMP:  63;

SAFFORD        PTCLDY    41  18  39 SE8       30.15R
6HR MIN TEMP:  40; 6HR MAX TEMP:  60;

$$

AZZ532-190700-
SOUTHWEST ARIZONA

CITY           SKY/WX    TMP DP  RH WIND       PRES   REMARKS
YUMA           CLEAR     59  33  37 CALM      30.01S
6HR MIN TEMP:  57; 6HR MAX TEMP:  77;

$$

CAZ041-043-047-048-061-525>527-560>570-190700-
SOUTHERN CALIFORNIA

CITY           SKY/WX    TMP DP  RH WIND       PRES   REMARKS
DOWNTOWN L.A.  CLEAR     59  57  93 CALM      30.04S FOG
6HR MIN TEMP:  59; 6HR MAX TEMP:  72;

L.A. AIRPORT   PTCLDY    61  59  93 SW5       30.04F
6HR MIN TEMP:  60; 6HR MAX TEMP:  71;

SAN DIEGO      PTCLDY    60  55  83 S5        30.06S
6HR MIN TEMP:  60; 6HR MAX TEMP:  63;

BURBANK        PTCLDY    61  50  67 SE5       30.04S
6HR MIN TEMP:  61; 6HR MAX TEMP:  72;

ONTARIO        PTCLDY    61  45  55 N3        30.05S
6HR MIN TEMP:  59; 6HR MAX TEMP:  73;

RIVERSIDE      PTCLDY    59  45  59 S3        30.05R
6HR MIN TEMP:  59; 6HR MAX TEMP:  72;

PALM SPRINGS   PTCLDY    61  42  49 NW7       30.05S
6HR MIN TEMP:  60; 6HR MAX TEMP:  76;

EL CENTRO NAS  CLEAR     55  34  45 CALM      30.02S
6HR MIN TEMP:  55; 6HR MAX TEMP:  76;

IMPERIAL       CLEAR     54  41  61 W3        30.00S
6HR MIN TEMP:  54; 6HR MAX TEMP:  76;

BLYTHE         CLEAR     54  33  45 NW3       30.02S
6HR MIN TEMP:  54; 6HR MAX TEMP:  75;

NEEDLES        CLEAR     60  32  34 W7        30.04R
6HR MIN TEMP:  60; 6HR MAX TEMP:  75;

$$

NVZ020-UTZ003-190700-
SOUTHERN NEVADA-UTAH

CITY           SKY/WX    TMP DP  RH WIND       PRES   REMARKS
LAS VEGAS      MOCLDY    55  41  59 W3        30.02S
6HR MIN TEMP:  53; 6HR MAX TEMP:  64;

SALT LAKE CITY MOCLDY    55  28  35 SE12      29.90F
6HR MIN TEMP:  41; 6HR MAX TEMP:  56;

$$

NMZ009-TXZ055-190700-
NEW MEXICO-WEST TEXAS

CITY           SKY/WX    TMP DP  RH WIND       PRES   REMARKS
ALBUQUERQUE    MOCLDY    35  10  35 CALM      30.20R
6HR MIN TEMP:  33; 6HR MAX TEMP:  51;

EL PASO        MOCLDY    36  17  46 S6        30.19S WCI  31
6HR MIN TEMP:  36; 6HR MAX TEMP:  53;

$$


........................KEY........................
SKY/WX - SKY CONDITION/WEATHER
TMP    - TEMPERATURE IN FAHRENHEIT
DP     - DEW POINT IN FAHRENHEIT
RH     - RELATIVE HUMIDITY IN PERCENT
WIND   - DIRECTION AND SPEED IN MILES PER HOUR (MPH)
VRB    - VARIABLE WIND DIRECTION
PRES   - MEAN SEA LEVEL PRESSURE IN INCHES OF MERCURY
         F - FALLING PRESSURE   R - RISING PRESSURE
         S - STEADY PRESSURE
VSB    - VISIBILITY IN MILES
HX     - HEAT INDEX IN FAHRENHEIT
WCI    - WIND CHILL INDEX IN FAHRENHEIT
TC     - TEMPERATURE IN CELSIUS WHICH IS ALSO KNOWN AS
         TEMPERATURE IN CENTIGRADE
AFB    - AIR FORCE BASE
         LUKE AFB IS LUKE AIR FORCE BASE
         DAVIS-MONTHAN IS DAVIS-MONTHAN AIR FORCE BASE
NAS    - NAVAL AIR STATION
         EL CENTRO NAS IS EL CENTRO NAVAL AIR STATION
N/A    - NOT AVAILABLE





USA.gov is the U.S. government's official web portal to all federal, state and local government web resources and services.